Flag for Poland Weather past 2 weeks in Kalisz, Poland

Now
49 °F

Overcast.


Feels Like: 47 °F
Forecast: 38 / 59 °F
Wind: 6 mph from West

Location: Kalisz

Current Time: Sep 23, 2014 at 4:33:29 AM

Latest Report: Sep 23, 2014 at 3:00 AM


Visibility: 16 mi

Pressure: 29.81 "Hg

Humidity: 92%

Dew point: 47 °F

Location of KaliszLocation

Historic Weather in Kalisz — Graph

°F

Kalisz temperature yesterday

Maximum temperature yesterday: 60 °F (at 3:00 PM)
Minimum temperature yesterday: 48 °F (at 11:00 PM)
Average temperature yesterday: 55 °F

Past Weeks' High & Low Weather Summary

 TemperatureHumidityPressure
High77 °F (Sep 14, 3:00 PM)100% (Sep 9, 5:00 AM)30.19 "Hg (Sep 9, 5:00 AM)
Low48 °F (Sep 22, 11:00 PM)43% (Sep 16, 4:00 PM)29.74 "Hg (Sep 22, 5:00 AM)
Average62 °F81%30.01 "Hg
* Reported Sep 8 3:00 AM — Sep 23 3:00 AM, Kalisz, Weather by CustomWeather, © 2014

Note: Actual official high and low records may vary slightly from our data, if they occured in-between our weather recording intervals... More about our weather records

Advertising

Kalisz weather history for previous 24 hours

 ConditionsComfort  
Time TempWeatherWind HumidityBarometerVisibility
3:00 AM
Sep 23
49 °FOvercast.6 mph92%29.81 "Hg16 mi
2:00 AM49 °FOvercast.6 mph92%29.82 "Hg9 mi
1:00 AM49 °FOvercast.6 mph93%29.82 "Hg9 mi
12:00 AM48 °FPassing clouds.5 mph95%29.82 "Hg9 mi
11:00 PM
Sep 22
48 °FPassing clouds.5 mph95%29.81 "Hg6 mi
10:00 PM49 °FPassing clouds.5 mph93%29.81 "Hg7 mi
9:00 PM50 °FPassing clouds.6 mph87%29.80 "Hg12 mi
8:00 PM51 °FPassing clouds.5 mph81%29.79 "Hg12 mi
7:00 PM53 °FPassing clouds.5 mph76%29.77 "Hg11 mi
6:00 PM55 °FOvercast.6 mph67%29.76 "Hg19 mi
5:00 PM58 °FPartly sunny.7 mph67%29.74 "Hg9 mi
4:00 PM60 °FScattered clouds.7 mph63%29.74 "Hg11 mi
3:00 PM60 °FScattered clouds.9 mph64%29.74 "Hg9 mi
2:00 PM59 °FScattered clouds.9 mph70%29.74 "Hg11 mi
1:00 PM56 °FPartly sunny.6 mph87%29.76 "Hg16 mi
12:00 PM58 °FOvercast.7 mph77%29.75 "Hg19 mi
11:00 AM55 °FOvercast.7 mph86%29.75 "Hg9 mi
10:00 AM54 °FOvercast.7 mph91%29.75 "Hg6 mi
9:00 AM53 °FOvercast.6 mph90%29.75 "Hg6 mi
8:00 AM53 °FFog.7 mph91%29.75 "Hg5 mi
7:00 AM54 °FFog.6 mph94%29.75 "Hg6 mi
6:00 AM54 °FOvercast.5 mph96%29.74 "Hg6 mi
5:00 AM54 °FOvercast.5 mph97%29.74 "Hg7 mi
4:00 AM54 °FSprinkles. Overcast.6 mph97%29.75 "Hg4 mi
Weather by CustomWeather, © 2014

See weather overviewHow to use our weather pages